#timestamp,LO_Frequency,Hit,StdDev 
1621886415.7,286047003.9,N
1621886435.6,286047002.9,N
1621886455.4,286047001.8,N
1621886475.3,286047002.8,N
1621886495.1,286047002.2,N
1621886515.8,286047000.4,N
1621886535.7,286047000.0,N
1621886585.5,286047002.6,E
1621886595.5,286046998.6,N
1621886615.3,286046996.5,P
1621886635.1,286046996.8,P
1621886655.9,286046998.5,N
1621886675.7,286047004.4,Y
1621886695.6,286047007.3,P
1621886715.4,286047006.9,N
1621886735.2,286047005.9,N
1621886755.1,286047003.2,N
1621886756.0,286047003.2,N
1621886775.8,286047003.9,N
1621886795.7,286047003.8,N
1621886815.5,286047001.6,N
1621886835.3,286047002.4,N
1621886855.2,286047002.6,N
1621886875.0,286047001.9,N
1621886875.9,286047001.9,N
1621886895.7,286047002.5,N
1621886915.6,286047000.1,N
1621886935.4,286047000.0,N
1621886955.3,286046998.7,N
1621886975.1,286046998.9,N
1621886976.0,286046998.9,N
1621886995.8,286046999.2,N
1621887015.7,286046997.0,N
1621887035.5,286046996.8,N
1621887055.4,286046997.7,N
1621887075.2,286046999.5,N
1621887095.0,286046999.5,N
1621887095.9,286046999.5,N
1621887115.8,286046999.3,N
1621887135.6,286046998.7,N
1621887155.4,286046998.8,N
1621887175.3,286046999.8,N
1621887195.1,286047006.0,N
1621887215.9,286047003.1,N
1621887235.7,286047005.1,N
1621887255.5,286047007.2,N
1621887275.4,286047005.3,N
1621887295.2,286047004.4,N
1621887315.0,286047002.2,N
1621887315.9,286047002.2,N
1621887335.8,286047002.4,N
1621887355.6,286047002.7,N
1621887375.5,286046999.8,N
1621887395.3,286047000.5,N
1621887415.1,286047000.9,N
1621887435.9,286047000.2,N
1621887455.7,286047000.0,N
1621887475.5,286046999.8,N
1621887495.4,286046998.1,N
1621887515.2,286046998.4,N
1621887535.1,286046998.4,N
1621887536.0,286046998.4,N
1621887555.8,286046998.0,N
1621887575.6,286046996.3,N
1621887595.5,286046995.1,N
1621887615.3,286046996.8,N
1621887635.2,286046997.0,N
1621887655.9,286046996.7,N
1621887675.7,286046999.1,N
1621887695.6,286046998.1,N
1621887715.4,286047000.3,N
1621887735.2,286047000.9,N
1621887755.1,286047000.7,N
1621887756.0,286047000.7,N
1621887775.8,286047000.7,N
1621887795.7,286046999.3,N
1621887815.5,286046999.4,N
1621887835.3,286046999.6,N
1621887855.2,286046998.7,N
1621887875.0,286047000.9,N
1621887875.9,286047000.9,N
1621887895.8,286047001.0,N
1621887915.6,286047001.1,N
1621887935.4,286046999.8,N
1621887955.3,286046999.8,N
1621887975.1,286047002.6,N
1621887995.8,286046999.8,N
1621888015.7,286046999.8,N
1621888035.5,286047002.1,N
1621888055.4,286047002.6,N
1621888075.2,286047000.2,N
1621888095.0,286046999.9,N
1621888095.9,286046999.9,N
1621888115.8,286047001.6,N
1621888135.6,286047002.1,N
1621888155.4,286047002.7,N
1621888175.3,286047002.4,N
1621888195.1,286047001.5,N
1621888215.9,286047004.2,Y
1621888235.7,286047002.1,P
1621888255.5,286047001.9,N
1621888275.4,286047002.1,P
1621888295.2,286047002.7,Y
1621888315.1,286047001.1,P
1621888316.0,286047001.1,P
1621888335.8,286047000.7,N
1621888355.6,286047000.5,N
1621888375.5,286047000.1,N
1621888395.3,286047011.9,Y
1621888415.1,286046998.7,P
1621888435.9,286047000.9,N
1621888455.7,286047000.3,N
1621888475.6,286047001.2,N
1621888495.4,286046998.5,N
1621888515.2,286046998.1,N
1621888535.1,286047000.8,N
1621888536.0,286047000.8,N
1621888555.8,286046998.2,N
1621888575.7,286047001.0,N
1621888595.5,286046998.5,N
1621888615.3,286046999.2,N
1621888635.2,286046996.6,N
1621888655.0,286046995.5,Y
1621888655.9,286046995.5,P
1621888675.7,286046995.1,N
1621888695.6,286046999.4,N
1621888715.4,286046998.8,N
1621888735.3,286046994.9,N
1621888755.1,286046995.1,N
1621888775.8,286046996.8,N
1621888795.7,286046997.8,N
1621888815.5,286046999.6,N
1621888835.4,286046998.9,N
1621888855.2,286047000.1,N
1621888875.0,286047002.2,N
1621888875.9,286047002.2,N
1621888895.8,286047002.7,N
1621888915.6,286047004.0,N
1621888935.4,286047005.7,N
1621888955.3,286047007.1,N
1621888975.1,286047006.1,N
1621888995.9,286047006.3,N
1621889015.7,286047009.0,N
1621889035.5,286047007.2,N
1621889055.4,286047004.9,N
1621889075.2,286047005.9,N
1621889095.0,286047005.3,N
1621889096.0,286047005.3,N
1621889115.8,286047004.8,N
1621889135.6,286047005.8,N
1621889155.5,286047005.3,N
1621889175.3,286047002.9,N
1621889195.1,286047003.6,N
1621889215.9,286047006.0,N
1621889235.7,286047005.0,N
1621889255.6,286047004.7,N
1621889275.4,286047007.1,N
1621889295.2,286047006.3,N
1621889315.1,286047004.6,N
1621889316.0,286047004.6,N
1621889335.8,286047005.6,N
1621889355.7,286047009.1,Y
1621889375.5,286047003.8,P
1621889395.3,286047003.5,P
1621889415.2,286047004.2,P
1621889435.9,286047001.3,N
1621889455.7,286047003.8,Y
1621889475.6,286046997.0,P
1621889495.4,286046999.4,N
1621889515.3,286046999.4,N
1621889535.1,286046999.2,N
1621889536.0,286046999.2,N
1621889555.8,286046996.7,N
1621889575.7,286046997.0,N
1621889595.5,286046995.1,N
1621889615.3,286046995.8,N
1621889635.2,286046997.3,N
1621889655.0,286046997.6,N
1621889655.9,286046997.6,N
1621889675.8,286046995.6,N
1621889695.6,286046995.2,N
1621889715.4,286046997.7,N
1621889735.3,286046997.3,N
1621889755.1,286046997.0,N
1621889775.8,286046996.9,N
1621889795.7,286046999.0,N
1621889815.5,286046998.4,N
1621889835.4,286046999.9,N
1621889855.2,286047004.2,N
1621889875.0,286047002.8,N
1621889875.9,286047002.8,N
1621889895.8,286047000.0,N
1621889915.6,286047000.9,N
1621889935.5,286046998.8,N
1621889955.3,286046999.1,N
1621889975.1,286046999.7,N
1621889995.9,286047001.2,N
